EW3148 Weather Reports


time (UTC)temp
C
wind
direction
speed
KPH
gust
KPH
rain 1hr
cm
rain 24hr
cm
rain mn
cm
humidity
%
barometer
mb
20220930161457 22 53 3.2 11.3 0.00 0.00 0.00 28 1016.5
20220930160455 22 161 3.2 11.3 0.00 0.00 0.00 28 1016.6
20220930153241 21 105 4.8 14.5 0.00 0.00 0.00 28 1016.7
20220930152215 21 90 4.8 16.1 0.00 0.00 0.00 29 1016.7
20220930151233 21 93 6.4 16.1 0.00 0.00 0.00 29 1016.7
20220930145048 20 88 4.8 12.9 0.00 0.00 0.00 31 1016.8
20220930140744 18 84 4.8 14.5 0.00 0.00 0.00 36 1016.7
20220930132328 17 98 1.6 6.4 0.00 0.00 0.00 42 1016.6
20220930125020 16 96 0.0 4.8 0.00 0.00 0.00 45 1016.4
20220930124031 15 114 0.0 4.8 0.00 0.00 0.00 45 1016.5
20220930123037 15 111 0.0 1.6 0.00 0.00 0.00 46 1016.4
20220930120917 16 86 1.6 11.3 0.00 0.00 0.00 44 1016.3
20220930113606 16 90 1.6 11.3 0.00 0.00 0.00 44 1016.2
20220930112627 16 96 1.6 11.3 0.00 0.00 0.00 44 1016.1
20220930111636 16 107 1.6 9.7 0.00 0.00 0.00 44 1016.2
20220930105536 17 62 1.6 6.4 0.00 0.00 0.00 45 1016.2
20220930104540 17 95 1.6 8.0 0.00 0.00 0.00 44 1016.1
20220930103516 17 96 1.6 9.7 0.00 0.00 0.00 43 1016.1
20220930102512 17 116 3.2 12.9 0.00 0.00 0.00 43 1016.1
20220930101438 18 86 1.6 12.9 0.00 0.00 0.00 43 1016.1
20220930095346 18 20 0.0 8.0 0.00 0.00 0.00 46 1015.9
20220930093150 18 133 0.0 9.7 0.00 0.00 0.00 48 1015.7
20220930085937 18 100 0.0 4.8 0.00 0.00 0.00 48 1015.7
20220930083805 18 81 0.0 3.2 0.00 0.00 0.00 47 1015.9
20220930081636 18 87 0.0 3.2 0.00 0.00 0.00 46 1015.9
20220930075502 19 80 0.0 0.0 0.00 0.00 0.00 45 1015.9
20220930072224 20 120 1.6 4.8 0.00 0.00 0.00 43 1015.8
20220930071154 20 115 1.6 4.8 0.00 0.00 0.00 43 1015.7
20220930070209 20 143 1.6 4.8 0.00 0.00 0.00 42 1015.7
20220930065217 20 133 1.6 12.9 0.00 0.00 0.00 41 1015.7
20220930064148 20 102 3.2 12.9 0.00 0.00 0.00 41 1015.8
20220930063125 20 84 1.6 9.7 0.00 0.00 0.00 40 1015.8
20220930062144 21 94 1.6 9.7 0.00 0.00 0.00 40 1015.7
20220930055947 21 62 1.6 8.0 0.00 0.00 0.00 38 1015.8
20220930054947 21 107 1.6 8.0 0.00 0.00 0.00 38 1015.8
20220930053952 21 119 0.0 3.2 0.00 0.00 0.00 37 1015.9
20220930052928 21 86 0.0 8.0 0.00 0.00 0.00 37 1015.9
20220930051855 21 80 0.0 8.0 0.00 0.00 0.00 36 1015.9
20220930050836 22 108 0.0 1.6 0.00 0.00 0.00 35 1016.1
20220930045848 22 111 0.0 0.0 0.00 0.00 0.00 34 1016.0
20220930044846 22 89 0.0 6.4 0.00 0.00 0.00 33 1016.1
20220930043845 23 135 0.0 6.4 0.00 0.00 0.00 32 1016.2
20220930042820 23 119 1.6 11.3 0.00 0.00 0.00 31 1016.2
20220930041803 23 142 4.8 14.5 0.00 0.00 0.00 30 1016.2
20220930040749 24 77 4.8 17.7 0.00 0.00 0.00 30 1016.3
20220930035742 24 88 4.8 17.7 0.00 0.00 0.00 30 1016.4
20220930033548 23 63 3.2 9.7 0.00 0.00 0.00 31 1016.4
20220930032554 23 122 0.0 6.4 0.00 0.00 0.00 32 1016.4
20220930031607 23 123 0.0 6.4 0.00 0.00 0.00 31 1016.2
20220930030542 23 111 0.0 3.2 0.00 0.00 0.00 31 1016.0
20220930025606 24 137 0.0 1.6 0.00 0.00 0.00 30 1015.9
20220930024617 24 140 0.0 0.0 0.00 0.00 0.00 30 1015.8
20220930022509 24 158 0.0 0.0 0.00 0.00 0.00 29 1015.7
20220930021439 25 150 0.0 3.2 0.00 0.00 0.00 29 1015.6
20220930020427 25 153 0.0 3.2 0.00 0.00 0.00 28 1015.6
20220930014308 25 163 0.0 0.0 0.00 0.00 0.00 28 1015.5
20220930011055 26 144 0.0 3.2 0.00 0.00 0.00 27 1015.4
20220930010114 26 131 0.0 3.2 0.00 0.00 0.00 26 1015.4
20220930005121 26 149 0.0 0.0 0.00 0.00 0.00 25 1015.3
20220930004138 27 144 0.0 1.6 0.00 0.00 0.00 24 1015.2
20220930003157 27 155 0.0 4.8 0.00 0.00 0.00 23 1015.3
20220930002213 28 105 0.0 4.8 0.00 0.00 0.00 22 1015.2
20220930000040 30 90 1.6 8.0 0.00 0.00 0.00 20 1015.2
20220929235030 30 75 0.0 4.8 0.00 0.00 0.00 19 1015.1
20220929234045 31 136 1.6 4.8 0.00 0.00 0.00 18 1015.0
20220929225630 32 119 1.6 9.7 0.00 0.00 0.00 16 1015.3
20220929223426 32 61 3.2 11.3 0.00 0.00 0.00 15 1015.4
20220929222427 32 24 1.6 8.0 0.00 0.00 0.00 15 1015.6
20220929221422 32 52 1.6 14.5 0.00 0.00 0.00 15 1015.6
20220929214059 32 153 1.6 16.1 0.00 0.00 0.00 14 1015.8
20220929211947 32 110 3.2 11.3 0.00 0.00 0.00 15 1016.1
20220929210923 32 101 3.2 11.3 0.00 0.00 0.00 15 1016.1
20220929205922 31 170 3.2 16.1 0.00 0.00 0.00 16 1016.2
20220929204922 32 39 4.8 16.1 0.00 0.00 0.00 15 1016.3
20220929202801 31 235 3.2 14.5 0.00 0.00 0.00 15 1016.7
20220929201806 32 264 4.8 14.5 0.00 0.00 0.00 14 1016.9
20220929200818 32 313 3.2 14.5 0.00 0.00 0.00 14 1017.1
20220929194707 31 238 4.8 14.5 0.00 0.00 0.00 15 1017.5
20220929193722 31 274 3.2 14.5 0.00 0.00 0.00 15 1017.7
20220929191610 31 296 3.2 14.5 0.00 0.00 0.00 16 1018.1
20220929190540 31 90 3.2 12.9 0.00 0.00 0.00 16 1018.4
20220929185510 31 105 3.2 12.9 0.00 0.00 0.00 17 1018.7
20220929184522 31 84 1.6 12.9 0.00 0.00 0.00 17 1018.9
20220929183536 30 232 1.6 12.9 0.00 0.00 0.00 17 1019.1
20220929181348 30 78 1.6 1.6 0.00 0.00 0.00 18 1019.6
20220929175153 30 58 1.6 11.3 0.00 0.00 0.00 18 1020.0
20220929173020 29 318 1.6 12.9 0.00 0.00 0.00 18 1020.4
20220929172039 28 36 4.8 12.9 0.00 0.00 0.00 20 1020.5
20220929164837 28 46 1.6 8.0 0.00 0.00 0.00 24 1021.0
20220929162633 27 350 1.6 12.9 0.00 0.00 0.00 26 1021.3